| time (UTC) | temp C | wind direction | speed KPH | gust KPH | rain 1hr cm | rain 24hr cm | rain mn cm | humidity % | barometer mb |
| 20260503184813 | 19 | 318 | 6.4 | 6.4 | 0.00 | 0.08 | 0.08 | 61 | 1031.3 |
| 20260503182812 | 18 | 25 | 12.9 | 14.5 | 0.00 | 0.08 | 0.08 | 65 | 1031.3 |
| 20260503180807 | 19 | 36 | 8.0 | 8.0 | 0.00 | 0.08 | 0.08 | 64 | 1031.7 |
| 20260503174806 | 18 | 355 | 9.7 | 9.7 | 0.00 | 0.08 | 0.08 | 69 | 1032.1 |
| 20260503172804 | 19 | 312 | 20.9 | 22.5 | 0.00 | 0.08 | 0.08 | 65 | 1031.7 |
| 20260503170803 | 19 | 329 | 17.7 | 20.9 | 0.00 | 0.08 | 0.08 | 59 | 1032.1 |
| 20260503150755 | 17 | 342 | 3.2 | 3.2 | 0.00 | 0.08 | 0.08 | 68 | 1031.3 |
| 20260503130754 | 13 | 48 | 6.4 | 8.0 | 0.00 | 0.08 | 0.08 | 83 | 1031.3 |
| 20260503110732 | 13 | 342 | 6.4 | 8.0 | 0.00 | 0.08 | 0.08 | 91 | 1030.8 |
| 20260503080703 | 12 | 108 | 0.0 | 0.0 | 0.00 | 0.00 | 0.00 | 86 | 1030.4 |
| 20260503072700 | 13 | 108 | 3.2 | 3.2 | 0.00 | 0.00 | 0.00 | 84 | 1030.4 |
| 20260503070659 | 12 | 192 | 3.2 | 3.2 | 0.00 | 0.00 | 0.00 | 85 | 1030.8 |
| 20260503054649 | 13 | 192 | 3.2 | 3.2 | 0.00 | 0.00 | 0.00 | 81 | 1031.7 |
| 20260503052645 | 13 | 192 | 3.2 | 3.2 | 0.00 | 0.00 | 0.00 | 82 | 1032.1 |
| 20260503050643 | 13 | 42 | 1.6 | 1.6 | 0.00 | 0.00 | 0.00 | 82 | 1032.1 |
| 20260503044642 | 14 | 162 | 3.2 | 3.2 | 0.00 | 0.00 | 0.00 | 83 | 1032.6 |
| 20260503042642 | 15 | 162 | 3.2 | 3.2 | 0.00 | 0.00 | 0.00 | 81 | 1032.6 |
| 20260503040641 | 15 | 36 | 3.2 | 3.2 | 0.00 | 0.00 | 0.00 | 82 | 1032.1 |
| 20260503034636 | 15 | 36 | 3.2 | 3.2 | 0.00 | 0.00 | 0.00 | 81 | 1032.1 |
| 20260503032632 | 16 | 72 | 3.2 | 3.2 | 0.00 | 0.00 | 0.00 | 80 | 1031.7 |
| 20260503030632 | 16 | 72 | 0.0 | 0.0 | 0.00 | 0.00 | 0.00 | 78 | 1031.7 |
| 20260503024632 | 16 | 12 | 6.4 | 8.0 | 0.00 | 0.00 | 0.00 | 79 | 1030.8 |
| 20260503022631 | 16 | 108 | 0.0 | 0.0 | 0.00 | 0.00 | 0.00 | 78 | 1030.4 |
| 20260503020628 | 16 | 24 | 8.0 | 9.7 | 0.00 | 0.00 | 0.00 | 77 | 1030.4 |
| 20260503014626 | 16 | 301 | 0.0 | 0.0 | 0.00 | 0.00 | 0.00 | 83 | 1030.8 |
| 20260503012622 | 16 | 306 | 3.2 | 3.2 | 0.00 | 0.00 | 0.00 | 83 | 1029.9 |
| 20260503010619 | 16 | 306 | 3.2 | 3.2 | 0.00 | 0.00 | 0.00 | 83 | 1029.9 |
| 20260503004618 | 16 | 300 | 0.0 | 0.0 | 0.00 | 0.00 | 0.00 | 84 | 1029.2 |
| 20260503002613 | 17 | 300 | 3.2 | 3.2 | 0.00 | 0.00 | 0.00 | 84 | 1028.7 |
| 20260503000612 | 18 | 264 | 3.2 | 3.2 | 0.00 | 0.00 | 0.00 | 71 | 1028.3 |
| 20260502234611 | 18 | 72 | 0.0 | 0.0 | 0.00 | 0.00 | 0.00 | 73 | 1027.4 |
| 20260502232608 | 18 | 174 | 9.7 | 11.3 | 0.00 | 0.00 | 0.00 | 77 | 1027.9 |
| 20260502230604 | 18 | 132 | 11.3 | 11.3 | 0.00 | 0.00 | 0.00 | 76 | 1027.9 |
| 20260502224602 | 18 | 138 | 9.7 | 9.7 | 0.00 | 0.00 | 0.00 | 76 | 1027.4 |
| 20260502222558 | 20 | 102 | 8.0 | 8.0 | 0.00 | 0.00 | 0.00 | 69 | 1027.0 |
| 20260502220555 | 20 | 138 | 3.2 | 3.2 | 0.00 | 0.00 | 0.00 | 69 | 1027.0 |
| 20260502214555 | 21 | 96 | 4.8 | 6.4 | 0.00 | 0.00 | 0.00 | 69 | 1027.0 |
| 20260502212552 | 22 | 276 | 4.8 | 4.8 | 0.00 | 0.00 | 0.00 | 60 | 1027.0 |
| 20260502210550 | 23 | 102 | 8.0 | 9.7 | 0.00 | 0.00 | 0.00 | 43 | 1026.5 |
| 20260502204550 | 23 | 78 | 14.5 | 16.1 | 0.00 | 0.00 | 0.00 | 41 | 1027.0 |
| 20260502202549 | 24 | 96 | 11.3 | 12.9 | 0.00 | 0.00 | 0.00 | 40 | 1027.0 |
| 20260502200548 | 23 | 72 | 11.3 | 12.9 | 0.00 | 0.00 | 0.00 | 42 | 1027.0 |
| 20260502194548 | 23 | 90 | 6.4 | 6.4 | 0.00 | 0.00 | 0.00 | 38 | 1027.4 |
| 20260502192545 | 24 | 120 | 8.0 | 8.0 | 0.00 | 0.00 | 0.00 | 36 | 1027.4 |
| 20260502190541 | 24 | 52 | 8.0 | 9.7 | 0.00 | 0.00 | 0.00 | 35 | 1027.9 |